Wind_Speed
11 11 11 11 11 12 12 12 11 10 9 9 9 8 8 7 7 6 6 5 5 5 5 5 5 5 5 4 4 4 3 3 3 2 3 3 2 1 1 2 2 2 3
12 12 12 12 12 12 12 12 11 11 10 9 9 8 8 8 7 6 5 4 4 4 4 4 4 4 4 4 4 4 3 2 2 2 2 2 2 1 1 1 1 2 3
12 12 12 12 12 12 12 12 11 11 10 9 9 9 8 7 7 6 5 4 4 4 4 4 3 3 3 4 4 3 3 2 2 2 2 2 2 2 2 1 0 1 2
12 12 12 12 12 12 12 12 11 11 10 9 9 8 7 7 6 5 5 4 3 3 3 3 3 3 3 3 3 3 3 2 2 2 2 2 2 2 1 1 1 1 2
11 11 11 12 12 12 12 12 12 11 10 9 8 7 6 6 6 5 5 4 3 2 2 2 3 3 3 3 3 3 2 2 2 2 2 1 1 1 1 1 1 1 1
11 11 11 11 12 12 12 12 11 10 10 9 8 7 7 6 5 5 4 4 3 2 1 2 3 3 3 3 3 3 3 3 3 3 2 2 2 1 1 1 1 1 1
11 11 11 11 12 12 12 12 11 11 10 9 8 7 6 6 5 4 4 3 2 2 2 2 2 3 3 3 3 3 3 3 3 3 3 2 2 2 2 2 2 2 1
10 11 11 12 12 12 12 12 11 11 10 9 8 7 6 5 5 5 3 2 2 1 1 2 3 3 3 3 3 3 3 3 3 3 3 3 3 3 3 3 3 3 2
9 10 11 12 11 11 12 11 11 10 10 10 8 7 5 4 4 4 3 2 2 2 1 3 3 2 2 3 3 3 3 3 3 3 4 4 4 4 4 4 3 3 3
10 11 11 11 11 11 11 11 11 10 10 9 8 7 6 5 5 4 3 3 2 1 1 2 2 2 3 3 3 4 4 4 4 4 4 4 5 4 5 4 4 4 4
11 11 10 11 11 11 11 11 10 10 9 9 8 7 6 6 5 4 4 3 2 1 1 1 2 2 2 3 4 5 5 5 5 5 5 5 6 5 5 5 4 5 5
11 11 11 10 10 11 11 10 10 10 9 9 8 7 6 5 5 5 5 4 3 2 1 1 2 3 3 4 4 5 6 6 6 6 6 6 6 6 6 6 5 5 6
10 10 10 10 10 10 10 10 10 9 10 10 9 8 7 6 6 5 5 4 3 3 2 2 3 3 4 5 6 6 6 7 7 7 7 7 7 7 7 7 7 7 7
10 10 10 9 9 9 9 10 10 9 9 9 8 8 7 7 6 5 5 5 4 3 2 2 3 4 4 5 7 7 7 8 8 8 8 9 9 8 8 8 9 9 9
10 9 9 10 9 9 9 9 9 9 9 9 8 8 7 6 6 5 5 5 5 4 3 3 5 5 5 6 6 7 7 8 8 8 10 10 10 10 10 10 10 10 10
9 8 8 9 9 9 8 8 8 8 8 8 8 7 7 6 5 5 5 4 5 5 4 5 5 5 6 6 6 7 8 8 9 9 10 11 11 11 11 11 12 11 11
8 8 7 8 8 8 8 8 8 8 8 8 8 7 7 6 5 5 5 5 4 5 5 6 6 6 6 6 7 7 8 8 9 10 11 11 12 12 12 12 11 12 11
7 7 7 7 7 8 7 7 8 7 7 7 8 8 7 7 6 6 6 6 5 5 6 6 6 6 6 7 8 8 9 9 9 10 11 12 12 13 13 13 13 13 13
7 6 6 6 6 7 6 7 7 7 8 8 8 8 7 7 7 7 6 6 6 6 6 6 7 7 7 8 9 9 10 10 10 11 11 12 13 13 14 14 14 14 14
6 6 6 6 6 6 6 6 6 7 7 7 7 7 7 7 8 7 7 7 7 7 7 7 7 7 8 8 8 9 10 10 10 11 12 12 12 12 13 13 14 14 15
5 6 7 6 6 6 6 5 6 7 7 7 8 8 8 7 8 8 8 8 8 7 7 8 8 9 8 9 9 9 9 9 10 11 12 12 13 13 13 14 14 15 15
5 6 6 7 6 6 6 5 6 7 7 7 8 8 8 8 8 9 9 9 10 9 8 8 9 9 10 10 10 11 10 11 10 11 11 12 13 13 13 14 15 15 15
4 6 6 7 7 7 6 6 6 7 8 8 8 9 9 8 8 9 10 10 10 10 9 10 10 10 10 11 11 11 11 11 12 12 12 12 13 14 14 15 15 16 16
5 5 6 7 7 8 9 8 8 9 9 9 9 10 10 9 9 10 10 10 10 10 10 11 11 11 11 12 12 12 12 12 12 12 12 12 13 14 15 15 15 16 17
7 7 7 8 8 9 9 9 9 11 11 11 11 11 11 11 11 11 12 11 11 11 11 12 12 13 13 13 13 13 13 13 13 13 14 14 15 15 16 16 17 16 17
9 8 9 9 10 10 10 10 11 12 13 12 12 12 13 13 13 13 13 13 13 13 13 13 14 14 15 15 15 15 15 14 14 15 15 15 16 17 17 17 18 18 18
Wind_Direction
77 78 77 76 75 76 80 79 81 84 86 84 87 92 95 100 104 105 113 117 116 119 125 133 138 139 145 145 147 145 144 153 173 182 167 152 143 125 134 160 161 150 141
80 81 79 77 76 75 77 78 79 81 85 85 85 89 93 94 99 103 109 116 120 123 130 130 130 138 147 151 150 154 160 162 167 184 187 182 162 157 177 189 182 160 150
80 80 78 77 77 75 74 75 77 77 81 86 86 87 89 90 92 95 95 102 113 129 139 137 134 136 144 150 156 168 179 187 188 201 211 191 176 181 189 188 175 140 155
75 75 76 75 74 73 72 73 73 75 77 81 84 84 85 85 85 85 86 96 109 131 145 147 144 159 157 160 164 166 181 189 199 207 200 201 200 195 193 175 155 145 157
74 72 74 73 71 70 70 71 72 72 71 73 77 80 80 78 76 80 81 92 99 116 131 156 162 177 178 177 175 173 188 199 200 198 206 209 192 190 177 179 179 161 155
70 69 70 70 69 69 69 69 70 69 66 63 65 67 66 71 77 78 78 81 82 95 133 166 169 181 190 196 191 195 205 206 210 209 213 211 206 216 203 189 208 195 181
68 68 69 69 69 69 67 66 64 64 63 58 56 59 59 61 67 69 74 77 90 108 141 163 181 193 199 206 205 211 211 216 222 226 231 225 214 215 218 218 220 215 213
67 68 70 70 70 70 67 64 63 62 59 58 57 57 56 56 61 59 67 77 82 98 160 179 190 191 198 206 217 219 222 227 230 239 239 233 226 222 227 219 215 214 215
68 70 70 70 69 67 64 62 60 57 56 55 53 54 52 50 54 56 65 79 68 88 151 194 198 199 212 215 224 229 233 241 244 237 240 237 231 229 227 219 220 214 213
68 71 70 69 69 66 61 59 58 55 53 52 50 49 46 44 51 59 71 74 74 131 167 200 210 228 226 236 246 244 246 251 249 245 237 234 232 226 224 224 226 225 222
67 68 70 69 64 62 59 59 56 55 50 46 46 49 49 42 45 54 62 62 63 64 198 207 226 239 233 233 240 242 247 247 248 250 250 243 233 229 229 228 232 232 231
62 65 67 67 63 57 57 57 55 53 49 46 45 44 42 40 40 48 48 50 40 25 349 241 237 241 246 245 250 254 252 254 255 251 250 242 235 234 230 235 237 240 236
56 60 62 63 61 57 58 56 53 52 50 50 48 44 41 38 40 48 42 40 24 11 355 293 271 270 265 260 264 266 261 260 262 254 253 249 244 239 236 239 240 241 242
54 55 56 58 57 56 56 55 52 50 50 49 47 43 41 36 36 32 24 16 11 7 347 305 283 291 280 268 264 265 264 267 267 256 251 250 251 248 247 247 247 243 247
50 52 52 53 56 54 52 52 50 48 46 45 38 33 32 31 27 19 9 6 359 353 350 318 294 299 295 282 276 270 267 264 264 259 253 252 254 252 252 252 247 246 247
50 50 50 48 51 50 48 44 39 36 35 33 28 22 19 19 17 11 1 352 347 341 337 327 313 301 297 289 284 279 271 262 261 262 257 252 253 255 257 256 252 250 250
47 49 50 45 46 47 46 38 31 28 25 23 21 16 14 13 9 6 359 347 335 330 329 323 318 307 300 295 287 282 270 267 267 265 262 257 253 254 255 256 257 253 252
42 45 45 42 40 41 40 35 30 25 21 18 15 12 8 7 3 356 349 345 335 329 327 326 319 312 301 295 287 280 277 272 270 269 265 260 255 253 254 255 255 254 253
37 33 37 36 33 31 32 31 29 27 21 16 12 10 9 7 2 352 342 340 334 328 323 320 315 308 302 297 287 282 282 278 272 271 269 264 258 257 255 256 256 256 258
23 21 26 24 20 20 21 19 21 22 18 13 8 5 3 3 357 350 343 341 336 326 318 312 310 307 303 298 289 287 287 278 270 267 265 262 257 258 259 261 259 258 261
2 8 14 6 5 5 5 3 7 8 5 4 360 355 350 347 348 344 336 333 339 338 331 318 308 303 301 299 293 290 285 280 275 268 264 261 257 257 260 261 260 261 263
347 343 342 347 348 344 343 345 351 347 346 348 348 345 340 338 340 337 336 330 330 324 321 321 318 308 303 300 299 291 285 279 279 273 268 267 263 262 262 259 258 258 261
338 336 335 335 336 334 328 323 327 327 329 330 331 331 329 325 325 323 323 324 325 320 315 315 316 309 308 307 301 294 292 288 284 278 275 272 266 264 262 262 261 260 262
330 331 333 328 328 329 326 318 315 315 316 317 319 319 319 318 315 314 317 317 317 315 312 311 312 310 306 304 302 297 294 289 285 284 281 279 273 270 268 266 268 268 267
316 317 321 320 320 321 320 319 317 312 308 309 310 310 309 309 308 309 309 311 309 307 307 305 305 306 305 302 301 296 292 286 284 281 278 277 274 272 270 268 267 268 269
308 310 310 311 311 312 316 310 312 311 308 304 302 304 304 305 305 304 302 302 302 303 304 304 302 302 301 299 297 293 289 282 283 280 275 274 275 274 272 272 269 268 269
Height
5876 5876 5876 5875 5875 5875 5875 5874 5874 5875 5875 5875 5875 5876 5877 5877 5878 5879 5880 5881 5882 5883 5884 5885 5885 5886 5887 5888 5888 5889 5890 5890 5891 5892 5892 5893 5894 5894 5894 5895 5895 5895 5896
5878 5877 5877 5877 5876 5876 5876 5876 5876 5876 5876 5876 5877 5877 5878 5879 5879 5880 5881 5881 5882 5883 5884 5885 5886 5887 5887 5888 5889 5889 5890 5891 5891 5892 5892 5893 5894 5894 5895 5895 5895 5896 5896
5879 5879 5879 5878 5878 5878 5877 5877 5877 5877 5878 5878 5878 5879 5879 5880 5880 5881 5882 5882 5883 5884 5885 5885 5886 5887 5887 5888 5889 5890 5891 5891 5892 5892 5893 5893 5894 5894 5895 5896 5896 5896 5897
5881 5880 5880 5880 5880 5879 5879 5879 5879 5879 5879 5879 5880 5880 5881 5881 5881 5882 5882 5883 5883 5884 5885 5886 5886 5887 5888 5888 5889 5890 5891 5892 5892 5893 5893 5894 5894 5895 5895 5896 5896 5896 5897
5883 5882 5882 5881 5881 5881 5881 5880 5880 5880 5880 5881 5881 5881 5882 5882 5882 5882 5883 5883 5884 5884 5885 5886 5887 5887 5888 5888 5889 5890 5891 5892 5892 5893 5893 5894 5894 5895 5895 5896 5896 5896 5897
5884 5883 5883 5883 5883 5882 5882 5882 5882 5882 5882 5882 5882 5882 5882 5882 5882 5883 5883 5884 5884 5884 5885 5886 5886 5887 5888 5889 5889 5890 5891 5891 5892 5893 5893 5894 5894 5895 5895 5895 5896 5896 5897
5886 5885 5884 5884 5884 5884 5884 5883 5883 5883 5883 5883 5883 5883 5883 5883 5883 5883 5883 5884 5884 5884 5884 5885 5886 5887 5888 5888 5889 5890 5890 5891 5892 5892 5893 5894 5894 5894 5895 5895 5896 5896 5896
5887 5886 5886 5886 5885 5885 5885 5885 5884 5884 5884 5884 5883 5883 5883 5883 5883 5883 5883 5883 5884 5884 5884 5885 5885 5886 5887 5888 5889 5889 5890 5891 5891 5892 5892 5893 5894 5894 5895 5895 5895 5896 5896
5888 5888 5887 5887 5887 5887 5886 5886 5886 5885 5885 5885 5884 5884 5883 5883 5883 5883 5883 5883 5883 5884 5884 5884 5885 5886 5886 5887 5888 5889 5890 5890 5890 5891 5891 5892 5893 5894 5894 5895 5895 5895 5896
5890 5889 5889 5888 5888 5888 5888 5887 5887 5886 5886 5885 5885 5884 5884 5884 5884 5884 5884 5884 5883 5883 5884 5884 5885 5885 5886 5887 5887 5888 5889 5889 5890 5890 5891 5891 5892 5893 5893 5894 5894 5895 5895
5892 5891 5890 5890 5889 5889 5889 5888 5888 5887 5887 5886 5886 5885 5885 5884 5884 5884 5884 5884 5884 5883 5883 5884 5885 5885 5885 5886 5887 5887 5888 5888 5889 5889 5889 5890 5891 5891 5892 5893 5893 5894 5894
5893 5893 5892 5891 5891 5890 5890 5889 5889 5888 5888 5887 5887 5886 5885 5885 5885 5885 5884 5884 5884 5884 5884 5884 5884 5884 5885 5885 5886 5886 5887 5887 5888 5888 5888 5889 5889 5890 5891 5892 5892 5893 5893
5895 5894 5893 5892 5892 5892 5891 5890 5890 5889 5889 5888 5887 5887 5886 5886 5885 5885 5885 5884 5884 5883 5883 5883 5883 5884 5884 5884 5885 5885 5885 5886 5886 5887 5887 5888 5888 5889 5890 5890 5891 5891 5892
5896 5895 5894 5894 5893 5893 5892 5892 5891 5890 5890 5889 5888 5887 5887 5886 5885 5885 5885 5884 5884 5883 5883 5883 5883 5883 5883 5883 5883 5884 5884 5884 5884 5885 5886 5887 5887 5888 5888 5889 5889 5890 5890
5897 5896 5895 5895 5894 5893 5893 5893 5892 5892 5891 5890 5889 5888 5887 5886 5886 5885 5884 5884 5884 5883 5883 5883 5882 5882 5882 5882 5882 5882 5882 5882 5882 5883 5884 5884 5885 5886 5886 5887 5887 5888 5888
5898 5897 5896 5896 5895 5895 5894 5893 5893 5892 5891 5890 5889 5888 5887 5887 5886 5885 5884 5884 5883 5883 5882 5882 5882 5881 5881 5880 5880 5880 5880 5880 5880 5881 5881 5882 5883 5884 5884 5885 5885 5885 5886
5899 5898 5897 5897 5896 5895 5895 5894 5893 5892 5891 5891 5889 5888 5887 5886 5886 5885 5884 5883 5883 5882 5881 5881 5880 5880 5879 5879 5878 5878 5878 5878 5878 5878 5879 5880 5880 5881 5882 5882 5882 5883 5883
5900 5898 5897 5897 5897 5896 5895 5894 5893 5893 5892 5891 5889 5888 5887 5886 5885 5884 5883 5883 5882 5881 5880 5880 5879 5878 5878 5877 5877 5876 5876 5876 5876 5876 5877 5877 5878 5878 5879 5879 5880 5880 5880
5900 5899 5898 5898 5897 5896 5896 5895 5894 5893 5892 5891 5890 5888 5887 5886 5885 5884 5883 5882 5881 5880 5879 5879 5878 5877 5877 5876 5875 5874 5874 5874 5873 5874 5874 5874 5875 5875 5876 5876 5877 5877 5877
5901 5900 5899 5898 5897 5896 5896 5895 5894 5893 5892 5891 5890 5888 5887 5886 5884 5883 5882 5880 5879 5879 5878 5877 5876 5876 5875 5874 5872 5871 5871 5871 5871 5871 5871 5871 5871 5872 5873 5873 5873 5874 5874
5900 5899 5898 5898 5897 5896 5895 5894 5893 5892 5892 5891 5889 5888 5886 5885 5884 5882 5881 5880 5878 5877 5876 5876 5875 5874 5872 5871 5870 5870 5869 5868 5868 5868 5868 5868 5868 5869 5869 5869 5870 5870 5871
5899 5899 5898 5897 5896 5895 5895 5894 5893 5892 5891 5890 5888 5887 5886 5884 5883 5881 5880 5878 5877 5876 5875 5874 5872 5871 5870 5869 5868 5867 5866 5866 5865 5865 5865 5865 5865 5865 5866 5866 5866 5866 5867
5898 5898 5897 5896 5894 5893 5893 5892 5892 5891 5890 5888 5887 5886 5884 5883 5881 5880 5878 5877 5876 5874 5873 5872 5870 5869 5868 5867 5865 5865 5864 5863 5862 5862 5861 5861 5862 5862 5862 5862 5863 5862 5862
5897 5897 5896 5894 5893 5892 5891 5891 5890 5889 5887 5886 5885 5884 5882 5881 5879 5878 5876 5875 5873 5872 5871 5870 5868 5866 5865 5864 5863 5862 5861 5860 5859 5859 5859 5858 5858 5859 5858 5859 5859 5859 5859
5896 5895 5894 5893 5892 5891 5890 5889 5888 5887 5885 5884 5882 5881 5880 5878 5876 5875 5873 5872 5871 5869 5868 5867 5865 5864 5862 5861 5860 5858 5857 5856 5856 5855 5855 5855 5855 5855 5855 5855 5855 5855 5854
5894 5893 5893 5892 5891 5890 5888 5887 5885 5884 5882 5880 5879 5878 5877 5875 5873 5872 5870 5869 5867 5866 5865 5863 5862 5860 5859 5858 5856 5855 5854 5853 5852 5852 5852 5851 5850 5850 5850 5850 5850 5850 5850